Regional Weather Roundup
Issued by NWS

Home | Current Version | Previous Version | Graphics & Text | Print | Product List | Glossary On
Versions: 1 2 3 4 5 6 7 8 9 10 11 12 13 14 15 16 17 18 19 20 21 22 23 24 25 26 27 28 29 30 31 32 33 34 35 36 37 38 39 40 41 42 43 44 45 46 47 48 49 50
268
ASUS45 KTFX 021010
RWRMT
MONTANA REGIONAL WEATHER ROUNDUP
NATIONAL WEATHER SERVICE GREAT FALLS MT
300 AM MST FRI DEC 02 2016

NOTE: "FAIR" INDICATES FEW OR NO CLOUDS BELOW 12000 FEET WITH NO
SIGNIFICANT WEATHER AND/OR OBSTRUCTIONS TO VISIBILITY.

MTZ001>007-043-021100-
WEST OF THE DIVIDE

CITY           SKY/WX    TMP DP  RH WIND       PRES   REMARKS
KALISPELL      FOG       30  29  96 CALM      30.20R VSB 1/2
MISSOULA       CLOUDY    30  29  96 E5        30.26R
BUTTE          CLOUDY    20  18  92 NW3       30.17R
MULLAN PASS    CLOUDY    21  19  92 VRB5      30.15R FOG
ANACONDA         N/A     21  19  93 SW3       30.19R
DEER LODGE       N/A     25  23  93 CALM      30.22R
EUREKA           N/A     28  27  93 CALM      30.22R
HAMILTON         N/A     30  23  74 CALM      30.25R
LIBBY            N/A     28  27  93 CALM      30.23R
PLAINS           N/A     33  25  73 CALM      30.24R
$$

MTZ008-052>055-021100-
SOUTHWEST MONTANA

CITY           SKY/WX    TMP DP  RH WIND       PRES   REMARKS
BOZEMAN        CLOUDY    26  24  92 SE6       30.18R WCI  19
DILLON         CLOUDY    25  15  66 S3        30.15R
W YELLOWSTONE  CLOUDY    14  12  92 CALM      30.13R
ENNIS          CLOUDY    23  21  93 SE5       30.20R
$$

MTZ009-010-012-014-046-048-049-054-021100-
EAST SLOPES AND CENTRAL MONTANA

CITY           SKY/WX    TMP DP  RH WIND       PRES   REMARKS
CUT BANK       CLEAR     16  13  88 CALM      30.10F
GREAT FALLS    CLOUDY    28  27  96 SE3       30.15R
HELENA         CLOUDY    33  21  61 W10       30.17R WCI  25
AUGUSTA          N/A     24  25 100 SW2       30.10S
BOWMANS CRNR   CLOUDY    25  24  99 S9        30.11R WCI  15
CHOTEAU          N/A     23  23 100 CALM      30.13S
CONRAD           N/A     14  14 100 NW3       30.13S
FAIRFIELD      CLOUDY    26  24  90 SE3       30.11S
POWER          MOCLDY    25  24  97 S5        30.12S
RAYNESFORD     LGT SNOW  29  28  92 SW7       30.14R WCI  22
ULM            CLOUDY    28  28  99 NW1       30.15R
$$

MTZ011-013-016-021-045-047-050-051-021100-
NORTH CENTRAL MONTANA

CITY           SKY/WX    TMP DP  RH WIND       PRES   REMARKS
HAVRE          CLOUDY    27  26  96 SW14      30.12S WCI  16
LEWISTOWN      LGT SNOW  27  25  92 W5        30.12R FOG
N BAR RANCH    MIX PCPN  28  25  86 NW15      30.11R WCI  17
CHINOOK          N/A     23  21  93 CALM      30.14R
DENTON         FLURRIES  29  27  93 NW6G21    30.10R WCI  23
GEYSER         FLURRIES  29  27  92 W10       30.12R WCI  19
GRASS RANGE    MOCLDY    29  26  86 W10       30.08R WCI  20
JUDITH GAP     LGT SNOW  25  24  96 N5        30.10R FOG
ROY            FLURRIES  29  28  94 MISG      30.09R
STANFORD       LGT SNOW  28  27  95 NW7       30.11R WCI  21
WINIFRED       FLURRIES  28  27  99 MISG      30.11R
$$

MTZ017>020-022>027-061-062-021100-
NORTHEAST MONTANA

CITY           SKY/WX    TMP DP  RH WIND       PRES   REMARKS
GLASGOW        CLOUDY    27  24  89 S8        30.10S WCI  19
JORDAN           N/A     30  27  88 W7        30.12R WCI  23
SIDNEY         CLOUDY    21  19  92 CALM      30.13R
WOLF POINT     CLOUDY    27  23  85 SW5       30.14R
PLENTYWOOD       N/A     25  25 100 SE3       30.11R
POPLAR           N/A     25  21  86 CALM      30.13R
$$

MTZ028>42-056>058-021100-
SOUTHCENTRAL AND SOUTHEAST MONTANA

CITY           SKY/WX    TMP DP  RH WIND       PRES   REMARKS
BAKER          CLOUDY    20  17  88 SE6       30.09R WCI  12
BILLINGS       CLOUDY    30  21  69 SW9       30.13R WCI  22
LIVINGSTON     CLOUDY    30  22  72 W12       30.14R WCI  20
MILES CITY     CLEAR     17  13  84 W5        30.11R
BIG TIMBER     CLOUDY    28  23  80 W23G30    30.13S WCI  14
EKALAKA          N/A     22  18  85 SE1       30.03R
FORSYTH          N/A     25  21  86 SW7       30.13R WCI  17
HARLOWTON      CLOUDY    28  22  78 NW12      30.11R WCI  18
LAUREL           N/A     27  11  51 CALM      30.10R
$$

REGIONAL REPORTS...DAKOTAS

CITY           SKY/WX    TMP DP  RH WIND       PRES   REMARKS
WILLISTON      CLOUDY    28  23  81 SE3       30.13R
MINOT          CLOUDY    27  21  78 S6        30.15R WCI  20
DICKINSON      CLOUDY    23  20  88 SE3       30.09R
BEACH          CLOUDY    23  23 100 S5        30.12S
CROSBY         CLOUDY    27  25  93 S7        30.15S WCI  19
TIOGA          CLOUDY    23  23 100 SE6       30.14R WCI  16
WATFORD CITY   CLOUDY    27  25  93 SE7       30.13R WCI  19
BISMARCK       CLOUDY    26  22  84 NE3       30.18R
GRAND FORKS    CLOUDY    29  22  75 N12       30.18R WCI  19
FARGO          CLOUDY    29  22  75 N13       30.16S WCI  19
BUFFALO SD       N/A     24  22  91 NE5       30.02R
RAPID CITY     PTCLDY    19  15  84 CALM      30.09R
$$

REGIONAL REPORTS...WYOMING/IDAHO/WASHINGTON

CITY           SKY/WX    TMP DP  RH WIND       PRES   REMARKS
GILLETTE       CLEAR     25  22  88 W7        30.08R WCI  17
SHERIDAN       CLOUDY    29  22  75 NW8       30.12R WCI  21
BUFFALO WY     MOCLDY    30  18  60 NW8       30.09R WCI  22
CODY           CLEAR     20  14  77 SW3       30.12R
YELLOWSTONE LA   N/A      7   5  91 CALM      30.09R
IDAHO FALLS    FOG       19  16  88 N3        30.21R VSB<1/4
SALMON         CLOUDY    27  25  93 N3        30.24S
BOISE          CLEAR     23  21  92 CALM      30.28S
SPOKANE        PTCLDY    27  25  92 CALM      30.29S VSB 1/16
$$

REGIONAL REPORTS...ALBERTA

CITY           SKY/WX    TMP DP  RH WIND       PRES   REMARKS
EDMONTON       CLOUDY    21  19  93 SW5       30.04S VSB 1/8
CALGARY        CLEAR     19  18  93 SW6       30.03S WCI  11
LETHBRIDGE     CLEAR     18 N/A N/A SW6       30.09S WCI   9
MEDICINE HAT   CLOUDY    25  23  93 S3        30.12R FOG
WATERTON GATE    N/A     32  18  55 SW15G23     N/A  WCI  22
CARDSTON         N/A     19  16  86 SW10        N/A  WCI   8
MILK RIVER       N/A     19  18  93 NW10        N/A  WCI   8
ONEFOUR          N/A     25  25 100 W5          N/A
$$

REGIONAL REPORTS...SASKATCHEWAN

CITY           SKY/WX    TMP DP  RH WIND       PRES   REMARKS
SWIFT CURRENT  CLOUDY    23  23 100 W7        30.05S WCI  15
REGINA         CLOUDY    27  25  93 SE5       30.10R
SASKATOON      CLOUDY    28  23  80 VRB2      30.13R
CYPRESS HILLS    N/A     19  18  93 W5          N/A
VAL MARIE        N/A     25  21  86 W5          N/A
ROCKGLEN         N/A     23  21  93 CALM        N/A
ASSINIBOIA       N/A     25  25 100 S5          N/A
$$




USA.gov is the U.S. government's official web portal to all federal, state and local government web resources and services.